METEOSAT-10 (MSG-3)

Last updated on Tue Sep 16 2025 00:02:22 GMT+0000 (Coordinated Universal Time)

1 38552U 12035B 25258.58457596 -.00000021 00000+0 00000+0 0 9997 2 38552 4.0168 61.9009 0000433 194.2988 309.1829 1.00274154 48109
UTC large
Height (km)
Speed (km/s)
/
Latitude / Longitude
Inclination (degrees)
Orbital Period (minutes)
Azimuth
Elevation
Range (km)
Doppler Factor

Next 0 passes for location: London (51.5072 / 0.1276)

Sorry there are no passes over London.